STARLINK-1329, 45531

Orbit data source: Space-Track

STARLINK-1329, 45531 is a payload satellite owned by SpaceX/Seattle (US) in LEO that was launched on Wed, 22 Apr 2020 UTC via an FALCON 9 launch vehicle from the Air Force Eastern Test Range (AFETR). Payloads include a variety of satellites, spacecraft, and rockets equipped with specific instruments for various scientific and technological missions. These include communications satellites like Starlink; space stations such as the ISS; scientific satellites like the Hubble; Earth observation satellites from companies like Planet Labs, Umbra, and HawkEye 360; GPS; miniature CubeSats for education and research; and military/defense satellites.

Loading next visibility...
STARLINK-1329 details
Identifier
45531, 2020-025A
Orbit
LEO
Last TLE update11 hours ago
Origin
Flag of USSpaceX/Seattle (US)
ManufacturerSpaceX/Seattle
MissionOperational Commercial Communications
Bus & MotorSTARLINK, Unknown motor
Mass260 kg wet, ~248 kg dry
Launch date (UTC)
2020-04-22 (5 years ago)
Launch vehicle
FALCON 9
Launch site
Air Force Eastern Test Range (AFETR)
Object type
Payload
Rocket body
Debris
Shape & HBRBox + 1 Pan, 8.86 m
Radar Cross Section13.562 m², Large (>1 m²)

Expand to show TLE details & history

TLE from 11 hours ago
0 STARLINK-1329
1 45531U 20025A   25045.16272267  .00000402  00000-0  45885-4 0  9996
2 45531  53.0535  50.7805 0001954  98.5380 261.5830 15.06390097265938
Epoch: 2025-02-14T03:54Z
Definitive object data (Epoch: 2025-02-14T03:54:19.238Z)
Latitude-0.00007°
Longitude-152.22815°
Altitude548.319 km
Speed7.589 km/s
True Right ascension03h 23m 07s
True Declination0° 00' 00"
Sunlit
Object was in daylight at TLE epoch
Visualization TLE readout
Latitude-46.76841°
Longitude153.02502°
Altitude564.497 km
Speed7.578 km/s
Apparent Right ascension02h 37m 23s
Apparent Declination-51° 59' 51"
Sunlit
Object is in daylight
Visualization observer readout
Local Sidereal Time17:24:44
Azimuth127.049° SE
Elevation-59.031°
Doppler factor1
Orbital elements
Apogee altitude548.866 km
Perigee altitude546.16 km
Semi-major axis6,925.65 km
Eccentricity0.0001954
Inclination53.0535°
RAAN50.7805°
Arg. of periapsis98.538°
True anomaly261.56085°
Mean anomaly261.583°
Eccentric anomaly261.57193°
Mean motion3.76576 °/min
BSTAR0.000045885
Orbital period95.6 mins
Loading maneuver chart data...
Loading historical data...
Loading historical data...
Loading historical data...
Loading historical data...
Loading historical data...
Loading historical data...
Loading historical data...

STARLINK-1329 Visibility forecast

Observer location: undefined°, undefined

Span
Click to sort rows by Start time (UTC) header in descending order
Start Az.
Max El. time (UTC)
Max El. Az.
Max El.
End time (UTC)
End Az.
6 mins2025-02-15 02:21:43.446Z200.434° SSW2025-02-15 02:24:43.446Z131.218° SE34.479°2025-02-15 02:27:43.446Z66.439° ENE
6 mins2025-02-15 04:01:43.446Z276.896° WNW2025-02-15 04:04:43.446Z344.765° N26.876°2025-02-15 04:07:43.446Z33.617° NE
6 mins2025-02-15 09:03:43.446Z329.366° NNW2025-02-15 09:05:43.446Z16.397° NNE35.174°2025-02-15 09:09:43.446Z107.122° ESE
5 mins2025-02-15 10:43:43.446Z266.708° W2025-02-15 10:45:43.446Z222.51° SW22.896°2025-02-15 10:48:43.446Z174.822° S
|